User: anonymous   Login
Location: Castillon
(43.0896°N, 0.2156°E)
Time: 20:38:55
(UTC+00:00)
Language:

Cosmos 2123 Rocket - Orbit

View from above orbital plane
View from above orbital plane
View from above satellite
View from above satellite

Ground track
Ground track

The orbit data is extracted from the following two-line orbital elements,

1 21090U 91007B   21271.40919354  .00000057  00000-0  43178-4 0  9996
2 21090  82.9225 153.7032 0020508 345.8678  14.1902 13.76404050538899
Epoch (UTC): 28 September 2021 09:49:14
Eccentricity: 0.0020508
inclination: 82.9225°
perigee height: 961 km
apogee height: 992 km
right ascension of ascending node: 153.7032°
argument of perigee: 345.8678°
revolutions per day: 13.76404050
mean anomaly at epoch: 14.1902°
orbit number at epoch: 53889

The dashed part of the orbit path shows where the satellite is in the earth's shadow,  

DLR